Regional Weather Roundup
Issued by NWS

Home | Current Version | Previous Version | Graphics & Text | Print | Product List | Glossary On
Versions: 1 2 3 4 5 6 7 8 9 10 11 12 13 14 15 16 17 18 19 20 21 22 23 24 25 26 27 28 29 30 31 32 33 34 35 36 37 38 39 40 41 42 43 44 45 46 47 48 49 50
000
ASUS43 KLSX 301507
RWRMO

WEATHER SUMMARY FOR MISSOURI
NATIONAL WEATHER SERVICE SPRINGFIELD MO
1000 AM CDT MON MAY 30 2016

NOTE: "FAIR" INDICATES FEW OR NO CLOUDS BELOW 12,000 FEET WITH NO
       SIGNIFICANT WEATHER AND/OR OBSTRUCTIONS TO VISIBILITY.
       CURRENT SKY AND/OR WEATHER CONDITIONS ARE NOT AVAILABLE FOR
       CHILLICOTHE AND FARMINGTON.

MOZ001>031-035>038-043-044-053-054-301600-
...NORTHERN AND WESTERN MISSOURI...

CITY           SKY/WX    TMP DP  RH WIND       PRES   REMARKS
KANSAS CTY INT PTSUNNY   77  67  71 S7        30.04F
KANSAS C DTWN  MOSUNNY   79  67  66 S6        30.03F
LEE`S SUMMIT   MOSUNNY   77  65  66 S6        30.06S
ST JOSEPH      SUNNY     77  67  71 S5        30.02F
CHILLICOTHE      N/A     79  68  69 S6        30.05F
KIRKSVILLE     SUNNY     80  66  62 VRB3      30.07F

$$
MOZ066>068-077>081-088>096-101>105-301600-
...SOUTHWEST MISSOURI...

CITY           SKY/WX    TMP DP  RH WIND       PRES   REMARKS
SPRINGFIELD    SUNNY     79  61  53 VRB3      30.09S
JOPLIN         CLOUDY    75  67  76 S7        30.07F
BRANSON        CLOUDY    75  66  73 CALM      30.11S

$$
MOZ032>034-039>042-045>050-055>058-069>072-301600-
...CENTRAL MISSOURI...

CITY           SKY/WX    TMP DP  RH WIND       PRES   REMARKS
COLUMBIA       SUNNY     80  66  62 S5        30.07F
JEFFERSON CITY MOSUNNY   77  66  68 E3        30.07F
ROLLA          SUNNY     79  65  62 CALM      30.09S
SEDALIA        SUNNY     80  69  69 SW6       30.08S
WARRENSBURG    MOSUNNY   77  64  65 S3        30.05F

$$
MOZ051-052-059>065-301600-
...EAST CENTRAL MISSOURI...

CITY           SKY/WX    TMP DP  RH WIND       PRES   REMARKS
ST LOUIS INTL  PTSUNNY   83  66  56 W3        30.08F
SPIRIT OF STL  SUNNY     80  67  64 W5        30.06F
ST CHARLES     SUNNY     80  67  64 W5        30.06F

$$
MOZ072>076-082>087-097>100-106>115-301600-
...SOUTH CENTRAL AND SOUTHEAST MISSOURI...

CITY           SKY/WX    TMP DP  RH WIND       PRES   REMARKS
CAPE GIRARDEAU SUNNY     80  65  59 VRB3      30.07F
POPLAR BLUFF   SUNNY     80  65  59 E3        30.07F
WEST PLAINS    MOSUNNY   78  63  59 CALM      30.12F

$$



USA.gov is the U.S. government's official web portal to all federal, state and local government web resources and services.